[[{"header":{"parameterUnit":"m.s-1","parameterCategory":1,"la1":30.2991,"la2":30.254,"lo1":-89.0895,"lo2":-89.0444,"dy":0.0017,"dx":0.0017,"nx":28,"ny":28,"refTime":"2025-03-29T03:00:00:Z","depth":0,"parameterNumber":2,"parameterNumberName":"U-component_of_WINDS"},"data":[0,0,0,0,0,0,0,0,0,0,0,0,0,0,0,0,0,0,0,0,0,0,0,0,0,0,0,0,0,0,0,0,0,0,0,0,0,0,0,0,0,0,0,0,0,0,0,0,0,0,0,0,0,0,0,0,0,0,-7.2485,-7.2484,0,-7.2426,-7.2425,-7.2424,-7.2289,-7.2286,-7.2283,-7.2281,-7.2224,-7.2225,-7.2226,0,0,0,0,0,0,0,0,0,0,0,0,0,-7.2485,-7.2486,-7.2485,-7.2484,-7.2483,-7.2426,-7.2425,-7.2424,-7.2289,-7.2286,-7.2282,-7.2279,-7.2224,-7.2225,-7.2227,0,0,0,0,0,0,0,0,0,0,0,0,0,-7.2462,-7.2486,-7.2485,-7.2409,-7.2401,-7.2426,-7.2425,-7.2424,-7.229,-7.2286,-7.2282,-7.2278,-7.2223,-7.2225,-7.2227,-7.2322,0,0,-7.2232,-7.2233,0,0,0,0,0,0,0,0,-7.2463,-7.2462,-7.2421,-7.2414,-7.2406,-7.236,-7.2404,-7.239,-7.2291,-7.2333,-7.228,-7.2276,-7.2273,-7.2271,-7.2269,-7.2319,-7.2317,-7.2232,-7.2233,-7.2234,-7.2234,0,0,0,0,0,0,0,-7.2465,-7.2464,-7.2461,-7.242,-7.2411,-7.2379,-7.2371,-7.2401,-7.2327,-7.2329,-7.2319,-7.2313,-7.2268,-7.2268,-7.2267,-7.2316,-7.2232,-7.2233,-7.2235,-7.2235,-7.2441,-7.2445,0,0,0,0,0,0,-7.2477,-7.2466,-7.2463,-7.246,-7.2425,-7.2383,-7.2374,-7.2379,-7.2327,-7.2314,-7.2317,-7.2307,-7.2267,-7.2265,-7.2264,-7.2369,-7.2234,-7.2235,-7.2236,-7.2436,-7.2442,-7.2447,0,0,0,0,0,0,-7.2478,-7.2478,-7.2466,-7.246,-7.2456,-7.2387,-7.2394,-7.238,-7.2379,-7.2318,-7.2304,-7.2329,-7.2263,-7.2262,-7.2308,-7.2366,-7.2236,-7.2238,-7.2431,-7.2438,-7.2444,-7.2583,0,0,0,0,0,0,-7.2478,-7.2479,-7.2513,-7.2462,-7.2457,-7.2509,-7.2398,-7.2382,-7.2382,-7.2369,-7.2326,-7.2315,-7.226,-7.2306,-7.231,-7.2366,-7.2239,-7.2425,-7.2434,-7.2442,-7.2573,-7.2594,-7.2611,0,0,0,0,0,-7.2479,-7.2555,-7.2515,-7.2516,-7.2497,-7.2513,-7.251,-7.2444,-7.2387,-7.2421,-7.2382,-7.2316,-7.2361,-7.2312,-7.2315,-7.2372,-7.2421,-7.2432,-7.2441,-7.2564,-7.259,-7.2611,0,0,0,0,0,0,-7.2616,-7.2547,-7.2502,-7.2564,-7.2545,-7.249,-7.253,-7.2473,-7.2471,-7.2459,-7.2379,-7.2371,-7.2428,-7.2406,-7.2353,-7.2462,-7.238,-7.2391,-7.2473,-7.2496,-7.2515,-7.2517,-7.224,0,0,0,0,0,-7.2653,-7.267,-7.261,-7.267,-7.2663,-7.2599,-7.2603,-7.2555,-7.2532,-7.2524,-7.2488,-7.247,-7.248,-7.2488,-7.2494,-7.2571,-7.2559,-7.2613,-7.2632,-7.2648,-7.2657,-7.2695,-7.2718,-7.2479,-7.2479,-7.2479,0,0,-7.273,-7.2695,-7.271,-7.2697,-7.2676,-7.2696,-7.2593,-7.2619,-7.2633,-7.2528,-7.2567,-7.2543,-7.2518,-7.258,-7.2605,-7.2563,-7.2721,-7.2661,-7.2674,-7.2674,-7.2708,-7.2731,-7.2751,-7.2486,-7.2485,-7.2484,0,0,-7.2879,-7.2856,-7.2902,-7.2884,-7.2855,-7.2812,-7.2824,-7.2778,-7.2756,-7.2796,-7.2717,-7.2735,-7.2754,-7.2739,-7.2734,-7.2882,-7.282,-7.2887,-7.2985,-7.3024,-7.3043,-7.3059,-7.3109,-7.3128,-7.2897,-7.2898,-7.2898,0,-7.2979,-7.3004,-7.2934,-7.2964,-7.2961,-7.2868,-7.2915,-7.2902,-7.2877,-7.2877,-7.2831,-7.2852,-7.2829,-7.2886,-7.2922,-7.2923,-7.2933,-7.2888,-7.3046,-7.3061,-7.3075,-7.3122,-7.3141,-7.2906,-7.2905,-7.2904,-7.2903,0,-7.3126,-7.3146,-7.3188,-7.3164,-7.3166,-7.3206,-7.3143,-7.3154,-7.3108,-7.3071,-7.3113,-7.3083,-7.308,-7.3091,-7.3046,-7.3142,-7.3116,-7.306,-7.2975,-7.3107,-7.3149,-7.3167,-7.2917,-7.2914,-7.2912,-7.291,0,0,-7.3355,-7.3294,-7.331,-7.3298,-7.3261,-7.3275,-7.3312,-7.3308,-7.3318,-7.3307,-7.3334,-7.3354,-7.3301,-7.3296,-7.3249,-7.3284,-7.34,-7.3222,-7.322,-7.3253,-7.3502,-7.3542,-7.3564,-7.3362,-7.3365,-7.3368,-7.3503,0,-7.3492,-7.3547,-7.3487,-7.3555,-7.3572,-7.3486,-7.3518,-7.35,-7.3468,-7.3479,-7.3445,-7.3458,-7.3389,-7.3385,-7.3416,-7.338,-7.3449,-7.337,-7.3386,-7.3387,-7.3389,-7.3586,-7.3628,-7.3756,-7.352,-7.3522,-7.3524,0,-7.3657,-7.3651,-7.3721,-7.3679,-7.3684,-7.3713,-7.3705,-7.3718,-7.3696,-7.3671,-7.3667,-7.361,-7.3645,-7.3567,-7.3613,-7.3561,-7.3565,-7.3549,-7.3553,-7.3547,-7.346,-7.3582,-7.3796,-7.3814,-7.3551,-7.3549,-7.3547,0,-7.3812,-7.3823,-7.3865,-7.3858,-7.3812,-7.3834,-7.3816,-7.3791,-7.3793,-7.3788,-7.3788,-7.3789,-7.3788,-7.3791,-7.3737,-7.3686,-7.3789,-7.3707,-7.3768,-7.3769,-7.3789,-7.3787,-7.4002,-7.38,-7.38,-7.38,-7.3799,0,-7.3968,-7.4014,-7.3933,-7.3959,-7.4008,-7.3941,-7.3992,-7.3966,-7.3944,-7.3964,-7.3893,-7.3914,-7.3844,-7.3858,-7.3817,-7.386,-7.3862,-7.3842,-7.3829,-7.3845,-7.3847,-7.3843,-7.3831,-7.3805,-7.3804,-7.3803,-7.3802,0,-7.4147,-7.4096,-7.4135,-7.4089,-7.4079,-7.4117,-7.4078,-7.4101,-7.4066,-7.4092,-7.4095,-7.404,-7.4053,-7.4001,-7.4006,-7.3979,-7.4042,-7.4017,-7.4048,-7.4039,-7.4101,-7.4094,-7.4316,-7.434,-7.4128,-7.413,-7.4132,0,-7.4247,-7.428,-7.4237,-7.4245,-7.4231,-7.4245,-7.4246,-7.4184,-7.4189,-7.4169,-7.4194,-7.4201,-7.4202,-7.4228,-7.4189,-7.4193,-7.4165,-7.4243,-7.4165,-7.418,-7.4162,-7.4158,-7.416,-7.4257,-7.426,-7.4262,-7.4264,0,-7.443,-7.4403,-7.4408,-7.4404,-7.4408,-7.4403,-7.4393,-7.4404,-7.4337,-7.4347,-7.4359,-7.436,-7.4365,-7.4373,-7.4369,-7.4352,-7.4297,-7.429,-7.4303,-7.4317,-7.4332,-7.4321,-7.4087,-7.4284,-7.4282,-7.428,-7.4279,-7.4278,-7.4569,-7.4594,-7.4568,-7.4576,-7.4562,-7.4555,-7.4573,-7.4541,-7.4549,-7.4547,-7.4511,-7.453,-7.451,-7.4499,-7.4488,-7.4503,-7.4466,-7.4487,-7.4491,-7.4496,-7.4505,-7.4335,-7.4503,-7.4502,-7.4502,-7.4501,-7.4501,0,-7.4745,-7.4725,-7.4733,-7.472,-7.4727,-7.4676,-7.4663,-7.4672,-7.4689,-7.4675,-7.4678,-7.4693,-7.4701,-7.4664,-7.4667,-7.4686,-7.4661,-7.4689,-7.4684,-7.4681,-7.4539,-7.4525,-7.4709,-7.4709,-7.4709,-7.4709,-7.4709,-7.4709,-7.4836,-7.4874,-7.4846,-7.4877,-7.4857,-7.4874,-7.487,-7.4864,-7.4852,-7.487,-7.4876,-7.4853,-7.483,-7.4831,-7.4836,-7.4826,-7.4829,-7.4864,-7.4845,-7.4712,-7.4691,-7.4672,-7.4658,-7.4867,-7.4867,-7.4985,-7.4986,-7.4987]},{"header":{"parameterUnit":"m.s-1","parameterCategory":1,"la1":30.2991,"la2":30.254,"lo1":-89.0895,"lo2":-89.0444,"dy":0.0017,"dx":0.0017,"nx":28,"ny":28,"refTime":"2025-03-29T03:00:00:Z","depth":0,"parameterNumber":3,"parameterNumberName":"V-component_of_WINDS"},"data":[0,0,0,0,0,0,0,0,0,0,0,0,0,0,0,0,0,0,0,0,0,0,0,0,0,0,0,0,0,0,0,0,0,0,0,0,0,0,0,0,0,0,0,0,0,0,0,0,0,0,0,0,0,0,0,0,0,0,3.5932,3.5933,0,3.5971,3.5971,3.5972,3.5968,3.5967,3.5966,3.5966,3.6003,3.6004,3.6006,0,0,0,0,0,0,0,0,0,0,0,0,0,3.5855,3.5856,3.5932,3.5933,3.5933,3.5971,3.5971,3.5972,3.5968,3.5967,3.5966,3.5966,3.6002,3.6004,3.6006,0,0,0,0,0,0,0,0,0,0,0,0,0,3.589,3.5857,3.5932,3.5936,3.5937,3.5971,3.5971,3.5972,3.5968,3.5967,3.5966,3.5965,3.6001,3.6004,3.6006,3.6038,0,0,3.6013,3.6014,0,0,0,0,0,0,0,0,3.5888,3.5893,3.5935,3.5936,3.5937,3.5964,3.5957,3.5994,3.5968,3.5956,3.5966,3.5965,3.599,3.5993,3.6002,3.6039,3.6041,3.6013,3.6015,3.6016,3.6016,0,0,0,0,0,0,0,3.5886,3.5891,3.5947,3.5936,3.5937,3.5935,3.5939,3.5964,3.5977,3.5957,3.5957,3.5962,3.599,3.6,3.6003,3.6042,3.6013,3.6015,3.6017,3.6017,3.6108,3.6109,0,0,0,0,0,0,3.5883,3.5889,3.5946,3.5949,3.591,3.5937,3.5942,3.5956,3.5977,3.598,3.5962,3.5961,3.5997,3.6,3.6004,3.6044,3.6015,3.6018,3.6019,3.6107,3.6109,3.611,0,0,0,0,0,0,3.5881,3.5888,3.5945,3.5919,3.5926,3.594,3.5955,3.5957,3.5967,3.5981,3.5983,3.597,3.5996,3.6001,3.603,3.6045,3.6019,3.6021,3.6106,3.6108,3.6109,3.6123,0,0,0,0,0,0,3.5879,3.5887,3.59,3.5919,3.5928,3.597,3.5956,3.5958,3.5971,3.597,3.5989,3.5991,3.5996,3.6027,3.6032,3.6048,3.6023,3.6105,3.6107,3.6109,3.6122,3.6125,3.6128,0,0,0,0,0,3.5876,3.5901,3.59,3.5907,3.5944,3.5971,3.5976,3.5981,3.5972,3.5985,3.5994,3.5991,3.6043,3.603,3.6036,3.6053,3.6104,3.6106,3.6108,3.612,3.6125,3.6128,0,0,0,0,0,0,3.5882,3.5904,3.5903,3.5935,3.5952,3.597,3.5986,3.5985,3.6004,3.6002,3.6007,3.6012,3.6041,3.6049,3.6034,3.6085,3.6072,3.6076,3.6079,3.6083,3.6086,3.6084,3.6024,0,0,0,0,0,3.5887,3.5908,3.5926,3.5953,3.5961,3.5972,3.5985,3.5988,3.6004,3.6011,3.6022,3.6038,3.6058,3.6071,3.609,3.6123,3.6127,3.6137,3.6141,3.6143,3.6147,3.6166,3.6171,3.6117,3.6117,3.6117,0,0,3.5898,3.5912,3.5925,3.5955,3.5967,3.5989,3.5978,3.6001,3.6017,3.6014,3.6042,3.6051,3.6069,3.6101,3.6115,3.6109,3.6163,3.6146,3.6149,3.615,3.6169,3.6174,3.6178,3.6119,3.6119,3.6118,0,0,3.5928,3.5941,3.5966,3.598,3.6,3.6007,3.6013,3.6032,3.6039,3.6068,3.6066,3.6085,3.6119,3.6132,3.6143,3.6181,3.6178,3.6187,3.6204,3.6223,3.6227,3.6231,3.6245,3.625,3.619,3.619,3.619,0,3.5939,3.5972,3.5978,3.6002,3.6016,3.6015,3.604,3.6052,3.6077,3.6086,3.6079,3.6123,3.6135,3.617,3.6179,3.6188,3.6195,3.6185,3.6226,3.623,3.6234,3.6248,3.6253,3.6191,3.6191,3.6191,3.6191,0,3.5984,3.6007,3.6025,3.6051,3.6066,3.609,3.61,3.6114,3.6116,3.6125,3.6155,3.6169,3.6192,3.62,3.6201,3.6236,3.6231,3.6225,3.6212,3.624,3.6253,3.6258,3.6192,3.6192,3.6192,3.6191,0,0,3.6019,3.6049,3.6056,3.6068,3.6091,3.6108,3.6133,3.6156,3.6169,3.6186,3.6207,3.6237,3.6232,3.6244,3.6247,3.6264,3.6294,3.6256,3.6256,3.6263,3.6334,3.6339,3.6344,3.6292,3.6293,3.6294,3.6332,0,3.6053,3.6097,3.6104,3.6143,3.6165,3.6165,3.6187,3.6203,3.6211,3.6231,3.624,3.6261,3.6253,3.626,3.6277,3.6287,3.6308,3.6284,3.6312,3.6313,3.6308,3.6351,3.6356,3.6392,3.6337,3.6338,3.6339,0,3.6098,3.6118,3.616,3.6181,3.619,3.6209,3.6232,3.6251,3.6269,3.6274,3.6289,3.6291,3.6316,3.6302,3.6337,3.6321,3.6332,3.6339,3.6341,3.6344,3.6328,3.6356,3.6403,3.6408,3.6347,3.6346,3.6345,0,3.6121,3.6158,3.6188,3.6198,3.6223,3.6237,3.6248,3.6266,3.628,3.6299,3.6309,3.633,3.6342,3.6359,3.6367,3.6355,3.6402,3.6388,3.6407,3.6407,3.6417,3.6416,3.6467,3.6423,3.6423,3.6423,3.6423,0,3.6158,3.6184,3.6199,3.6217,3.6246,3.6254,3.6282,3.6292,3.6308,3.6329,3.633,3.6349,3.6357,3.6377,3.6383,3.6412,3.6417,3.6422,3.6424,3.6423,3.6422,3.6431,3.6429,3.6425,3.6424,3.6424,3.6424,0,3.6188,3.62,3.6232,3.6254,3.626,3.6281,3.6299,3.6317,3.6326,3.6352,3.6358,3.6372,3.6396,3.6405,3.6434,3.6438,3.6471,3.647,3.6466,3.6466,3.6485,3.6484,3.6544,3.6552,3.6502,3.6503,3.6503,0,3.6212,3.6232,3.6256,3.627,3.6282,3.6305,3.632,3.6328,3.6344,3.6367,3.6382,3.6406,3.6426,3.6465,3.6477,3.6499,3.6499,3.6519,3.6503,3.6502,3.6501,3.65,3.6502,3.6522,3.6523,3.6523,3.6523,0,3.6253,3.6258,3.6279,3.6304,3.6322,3.6341,3.6359,3.6371,3.6382,3.6399,3.6425,3.644,3.6471,3.6495,3.6518,3.6529,3.6528,3.6528,3.6534,3.6534,3.6531,3.6533,3.6475,3.6527,3.6527,3.6526,3.6526,3.6526,3.6281,3.6299,3.632,3.6344,3.6359,3.6377,3.6395,3.6407,3.6429,3.6455,3.6459,3.6486,3.6505,3.6536,3.6548,3.6569,3.6564,3.6572,3.6574,3.6576,3.6578,3.6527,3.6573,3.6573,3.6573,3.6573,3.6573,0,3.6323,3.6336,3.6359,3.6386,3.6405,3.6404,3.6424,3.6441,3.6465,3.6483,3.6503,3.6533,3.6557,3.6571,3.6595,3.6609,3.661,3.6615,3.6615,3.6618,3.6581,3.6574,3.6615,3.6615,3.6615,3.6615,3.6615,3.6615,3.6347,3.6378,3.6386,3.6425,3.6438,3.6466,3.6478,3.6494,3.6509,3.6542,3.6562,3.6572,3.6589,3.6614,3.6636,3.664,3.6649,3.6655,3.6658,3.6624,3.662,3.6616,3.6609,3.6657,3.6657,3.6693,3.6693,3.6694]}]]